Tracking 29892 objects as of 21-Nov-2024
HD Live streaming from Space Station
objects crossing your sky now

STARLINK-3100

Track STARLINK-3100 now!
10-day predictions
STARLINK-3100 is classified as:


NORAD ID: 49144
Int'l Code: 2021-082Q
Perigee: 576.6 km
Apogee: 581.8 km
Inclination: 70.0 °
Period: 96.1 minutes
Semi major axis: 6950 km
RCS: Unknown
Launch date: September 14, 2021
Source: United States (US)
Launch site: AIR FORCE WESTERN TEST RANGE (AFWTR)
Your satellite tracking list
Your tracking list is empty




NASA's NSSDC Master Catalog

Two Line Element Set (TLE):
1 49144U 21082Q   24325.63889684 -.00002191  00000-0 -17592-3 0  9995
2 49144  69.9985  49.6955 0003740 273.6962  86.3769 14.98321441174971
Source of the keplerian elements: AFSPC